This is the latest recevied weather packets stored in our database for station/object CQ0XVC-11. If no packets are shown the sender has not sent any weather packets the latest 10 day(s).
| Time | Temp. | Humidity | Pressure | Rain* | Wind** | Luminosity | Snow |
|---|---|---|---|---|---|---|---|
| 1777272539 | 14.44° C | 75% | 1001.3 hPa | 0 mm | - | - | - |
| 1777272238 | 13.89° C | 75% | 1001.2 hPa | 0 mm | - | - | - |
| 1777271984 | 13.89° C | 77% | 1001.2 hPa | 0 mm | - | - | - |
| 1777271935 | 13.89° C | 77% | 1001.2 hPa | 0 mm | - | - | - |
| 1777271633 | 13.33° C | 77% | 1001.1 hPa | 0 mm | - | - | - |
| 1777271331 | 12.78° C | 78% | 1001.1 hPa | 0 mm | - | - | - |
| 1777271071 | 12.78° C | 79% | 1000.8 hPa | 0 mm | - | - | - |
| 1777271029 | 12.78° C | 79% | 1000.8 hPa | 0 mm | - | - | - |
| 1777270726 | 12.22° C | 79% | 1000.9 hPa | 0 mm | - | - | - |
| 1777270425 | 12.22° C | 78% | 1000.9 hPa | 0 mm | - | - | - |
| 1777270158 | 12.22° C | 78% | 1000.8 hPa | 0 mm | - | - | - |
| 1777270122 | 12.22° C | 78% | 1000.8 hPa | 0 mm | - | - | - |
| 1777269858 | 12.22° C | 78% | 1000.9 hPa | 0 mm | - | - | - |
| 1777269820 | 12.22° C | 78% | 1000.9 hPa | 0 mm | - | - | - |
| 1777269518 | 12.22° C | 77% | 1000.9 hPa | 0 mm | - | - | - |
| 1777269259 | 12.22° C | 77% | 1000.8 hPa | 0 mm | - | - | - |
| 1777269216 | 12.22° C | 77% | 1000.8 hPa | 0 mm | - | - | - |
| 1777268913 | 12.22° C | 77% | 1000.8 hPa | 0 mm | - | - | - |
| 1777268651 | 12.78° C | 78% | 1000.9 hPa | 0 mm | - | - | - |
| 1777268612 | 12.78° C | 78% | 1000.9 hPa | 0 mm | - | - | - |
| 1777268349 | 12.78° C | 79% | 1000.9 hPa | 0 mm | - | - | - |
| 1777268309 | 12.78° C | 79% | 1000.9 hPa | 0 mm | - | - | - |
| 1777268040 | 12.78° C | 77% | 1000.7 hPa | 0 mm | - | - | - |
| 1777268007 | 12.78° C | 77% | 1000.7 hPa | 0 mm | - | - | - |
| 1777267705 | 12.22° C | 77% | 1000.7 hPa | 0 mm | - | - | - |
* Rain since midnight (hover to see other rain measurements)
** Current wind speed in m/s (hover to see current wind gust speed)